Location: Bjelajci
(45.0103°N, 16.1758°E)
Time: 19:50:35
(UTC+00:00)

Cosmos 1437 Rocket - Pass Details

Date: 14 July 2020
Orbit: 506 x 562 km, 81.2° (Epoch: 05 August)

Event Time Altitude Azimuth Distance (km) Brightness Sun altitude
Rises 00:30:37 0° 351° (N) 2,737 7.4 -20.3°
Reaches altitude 10° 00:32:50 10° 353° (N) 1,830 6.3 -20.2°
Maximum altitude 00:36:51 72° 78° (ENE) 573 2.9 -19.9°
Enters shadow 00:38:02 43° 151° (SSE) 767 3.2 -19.8°
